Weather History for KMTN - March, 2013

Change the Weather History Date:

Sunday, March 10, 2013

  Actual Average Record
Temperature  
Mean Temperature 44 °F -  
Max Temperature 57 °F 46 °F 77 °F (2006)
Min Temperature 30 °F 31 °F 23 °F (2005)
Degree Days  
Heating Degree Days 22    
Moisture  
Dew Point 31 °F    
Average Humidity 76    
Maximum Humidity 93    
Minimum Humidity 29    
Precipitation  
Precipitation 0.00 in - - ()
Sea Level Pressure  
Sea Level Pressure 30.32 in    
Wind  
Wind Speed 2 mph (ESE)    
Max Wind Speed 12 mph    
Max Gust Speed -    
Visibility 10 miles    
Events      
Averages and records for this station are not official NWS values.
T = Trace of Precipitation, MM = Missing Value Source: NWS Daily Summary

Daily Weather History Graph

Daily Weather History Graph

Search for Another Location

Airport or City:

Trip Planner

Search our weather history database for the weather conditions in past years. The results will help you decide how hot, cold, wet, or windy it might be!

Date:

Astronomy

Mar. 10, 2013 Rise Set
Actual Time 7:24 AM EDT 7:07 PM EDT
Civil Twilight 6:57 AM EDT 7:34 PM EDT
Nautical Twilight 6:26 AM EDT 8:05 PM EDT
Astronomical Twilight 5:55 AM EDT 8:36 PM EDT
Moon 6:22 AM EDT (3/10) 6:13 PM EDT (3/10)
Length of Visible Light 12h 36m
Length of Day
11h 43m
Waning Crescent, 2% of the Moon is Illuminated
Mar 10
Waning Crescent
Mar 11
New
Mar 19
First Quarter
Mar 27
Full
Apr 3
Last Quarter

Hourly Weather History & Observations

Time (EDT) Temp. Windchill Dew Point Humidity Pressure Visibility Wind Dir Wind Speed Gust Speed Precip Events Conditions
12:00 AM 35.6 °F - 32.0 °F 87% 30.32 in 10.0 mi Calm Calm - N/A   Clear
12:18 AM 35.6 °F - 30.2 °F 81% 30.31 in 10.0 mi Calm Calm - N/A   Clear
12:39 AM 33.8 °F - 30.2 °F 87% 30.32 in 10.0 mi Calm Calm - N/A   Clear
1:00 AM 35.6 °F - 30.2 °F 81% 30.32 in 10.0 mi Calm Calm - N/A   Clear
1:18 AM 33.8 °F - 30.2 °F 87% 30.32 in 10.0 mi Calm Calm - N/A   Clear
1:39 AM 33.8 °F - 28.4 °F 81% 30.32 in 10.0 mi Calm Calm - N/A   Clear
3:00 AM 33.8 °F - 32.0 °F 93% 30.32 in 10.0 mi Calm Calm - N/A   Clear
3:18 AM 33.8 °F - 30.2 °F 87% 30.32 in 10.0 mi Calm Calm - N/A   Clear
3:39 AM 32.0 °F - 30.2 °F 93% 30.31 in 10.0 mi Calm Calm - N/A   Clear
4:00 AM 32.0 °F - 30.2 °F 93% 30.31 in 10.0 mi Calm Calm - N/A   Clear
4:18 AM 32.0 °F - 30.2 °F 93% 30.31 in 10.0 mi Calm Calm - N/A   Clear
5:00 AM 32.0 °F - 28.4 °F 87% 30.31 in 10.0 mi Calm Calm - N/A   Clear
5:18 AM 32.0 °F - 30.2 °F 93% 30.32 in 10.0 mi Calm Calm - N/A   Clear
5:39 AM 32.0 °F - 30.2 °F 93% 30.32 in 10.0 mi Calm Calm - N/A   Clear
5:50 AM 32.0 °F - 28.4 °F 87% 30.31 in 10.0 mi Calm Calm - N/A   Clear
6:00 AM 32.0 °F - 30.2 °F 93% 30.32 in 10.0 mi Calm Calm - N/A   Clear
6:18 AM 32.0 °F - 30.2 °F 93% 30.32 in 10.0 mi Calm Calm - N/A   Clear
6:33 AM 30.2 °F - 26.6 °F 86% 30.33 in 10.0 mi Calm Calm - N/A   Clear
6:45 AM 30.2 °F - 26.6 °F 86% 30.33 in 10.0 mi Calm Calm - N/A   Clear
8:45 AM 39.2 °F - 32.0 °F 75% 30.35 in 7.0 mi Calm Calm - N/A   Partly Cloudy
9:45 AM 44.6 °F 42.2 °F 35.6 °F 71% 30.36 in 7.0 mi NE 4.6 mph - N/A   Partly Cloudy
10:45 AM 48.2 °F - 28.4 °F 46% 30.37 in 7.0 mi SSE 3.5 mph - N/A   Partly Cloudy
11:45 AM 50.0 °F - 28.4 °F 43% 30.37 in 7.0 mi SE 6.9 mph - N/A   Partly Cloudy
12:45 PM 51.8 °F - 28.4 °F 41% 30.36 in 7.0 mi ESE 6.9 mph - N/A   Partly Cloudy
1:50 PM 55.4 °F - 30.2 °F 38% 30.34 in 7.0 mi SE 9.2 mph - N/A   Partly Cloudy
2:55 PM 57.2 °F - 26.6 °F 31% 30.31 in 10.0 mi SE 9.2 mph - N/A   Partly Cloudy
3:55 PM 57.2 °F - 24.8 °F 29% 30.29 in 10.0 mi SSE 11.5 mph - N/A   Partly Cloudy
5:45 PM 55.4 °F - 30.2 °F 38% 30.27 in 10.0 mi SE 10.4 mph - N/A   Partly Cloudy
6:45 PM 50.0 °F - 32.0 °F 50% 30.27 in 10.0 mi ESE 9.2 mph - N/A   Partly Cloudy
8:45 PM 46.4 °F 41.1 °F 35.6 °F 66% 30.29 in 10.0 mi SSE 11.5 mph - N/A   Scattered Clouds
10:21 PM 44.6 °F 41.4 °F 37.4 °F 76% 30.30 in 10.0 mi ENE 5.8 mph - N/A   Clear
10:42 PM 42.8 °F 38.6 °F 37.4 °F 81% 30.30 in 10.0 mi ENE 6.9 mph - N/A   Clear
11:00 PM 42.8 °F 39.3 °F 37.4 °F 81% 30.30 in 10.0 mi ENE 5.8 mph - N/A   Clear
11:21 PM 42.8 °F 38.6 °F 37.4 °F 81% 30.29 in 10.0 mi East 6.9 mph - N/A   Clear
11:42 PM 41.0 °F 38.0 °F 37.4 °F 87% 30.30 in 10.0 mi East 4.6 mph - N/A   Clear
12:00 AM 41.0 °F 38.0 °F 37.4 °F 87% 30.29 in 10.0 mi East 4.6 mph - N/A   Clear
12:21 AM 41.0 °F 39.0 °F 37.4 °F 87% 30.29 in 10.0 mi East 3.5 mph - N/A   Clear
12:42 AM 41.0 °F - 37.4 °F 87% 30.30 in 10.0 mi Calm Calm - N/A   Clear